Theta_e
313 312 312 312 312 312 312 312 312 312 312 312 312 312 312 312 311 311 311 310 310 310 310 311 311 312 312 312 311 310 309 308 308 307 307 307 307 307 307 307 306 306 306
311 311 311 310 309 309 309 308 308 308 309 309 310 310 311 311 311 311 311 310 309 309 309 309 310 310 310 309 310 309 308 308 307 307 306 306 306 305 306 304 304 303 302
311 311 310 310 310 309 309 308 307 306 306 307 308 308 309 310 311 311 311 310 310 309 308 308 308 308 309 308 309 308 307 307 307 306 306 305 304 304 303 302 301 300 299
307 306 306 305 305 304 304 304 304 303 303 303 303 303 304 305 307 309 309 310 310 309 308 307 307 305 306 306 307 306 306 306 306 305 305 304 303 302 301 300 299 298 296
302 302 302 302 302 302 302 302 303 302 302 302 302 301 302 303 304 306 307 308 308 308 308 307 306 305 305 305 305 305 305 304 304 304 303 303 302 301 301 299 296 295 292
301 301 301 301 301 301 300 300 300 300 300 300 300 300 301 302 303 304 305 305 306 306 306 305 304 304 304 303 304 303 303 303 303 302 302 300 300 299 297 295 292 291 289
300 299 299 299 298 298 298 298 299 299 299 299 300 300 301 301 302 303 304 304 304 304 303 301 302 302 301 301 301 300 301 301 301 299 297 297 296 295 294 293 291 291 290
298 297 297 297 297 297 297 298 298 298 298 297 298 298 299 300 302 302 303 302 302 302 301 300 300 300 299 298 298 299 300 300 298 296 295 294 293 292 292 291 291 290 288
297 296 296 296 296 296 296 296 296 297 296 297 297 297 298 299 301 301 301 300 300 299 297 296 297 298 298 298 298 298 297 295 294 293 293 292 291 291 291 291 290 289 288
294 294 294 295 295 295 295 295 294 294 295 295 296 297 298 299 299 299 299 299 299 297 295 295 295 296 296 296 296 294 292 291 291 290 291 290 290 290 289 290 290 290 290
293 293 293 293 293 293 293 294 294 294 294 294 295 296 297 298 298 298 297 296 296 296 294 294 294 293 292 291 290 290 290 289 289 289 289 289 289 290 290 290 289 289 288
292 292 292 292 292 292 293 293 293 293 293 293 294 295 296 296 296 295 294 292 292 291 291 291 290 289 289 288 289 289 288 288 288 289 289 289 289 289 289 288 288 287 287
292 292 292 292 291 290 290 291 291 292 292 293 294 295 295 294 293 292 291 290 289 289 289 288 288 287 288 288 287 287 288 288 288 288 288 289 288 288 287 287 287 286 285
290 290 289 289 289 289 289 289 289 290 291 292 293 293 292 291 290 289 288 288 288 287 287 287 287 287 287 287 288 287 288 288 288 288 288 288 287 287 286 286 285 285 284
288 288 288 288 288 288 288 288 289 290 290 292 292 291 290 289 288 287 288 288 287 287 287 287 287 287 287 287 287 287 287 287 288 288 287 287 286 286 285 285 284 283 282
288 288 288 288 288 287 287 288 289 290 290 291 290 289 289 288 287 287 288 288 287 287 287 287 287 287 287 287 287 287 287 287 287 287 286 286 285 285 284 283 282 281 281
288 288 288 288 288 288 287 287 288 290 289 290 289 289 289 287 287 287 287 287 287 287 287 287 287 287 287 287 287 287 287 287 286 286 285 284 283 282 282 281 281 280 279
286 286 287 287 287 287 286 287 287 288 289 288 287 288 288 287 287 287 287 287 287 287 287 287 287 287 287 286 286 285 285 284 283 283 282 281 281 280 280 279 279 278 277
285 285 285 286 286 286 286 285 287 287 287 286 286 287 287 286 287 287 287 287 288 288 287 286 286 285 284 284 283 283 282 281 280 280 279 279 278 278 277 277 277 276 276
283 283 283 284 284 285 285 285 286 287 286 285 286 287 287 287 287 287 287 287 287 287 285 284 284 283 282 281 281 280 279 278 278 277 277 277 276 276 275 275 274 274 273
280 281 281 282 282 283 283 283 284 285 285 285 285 286 286 286 286 286 287 287 286 285 284 283 282 281 280 279 279 278 277 277 277 276 276 275 275 275 274 274 274 273 273
278 278 278 279 280 281 281 282 282 283 284 285 285 285 286 286 286 286 286 286 284 283 282 280 280 279 279 278 277 276 276 275 275 275 274 274 274 273 273 273 272 272 271
276 276 277 277 277 278 279 280 281 282 283 284 284 284 285 285 284 285 284 283 282 281 280 279 278 277 277 276 276 275 274 274 273 273 273 273 272 272 272 271 271 270 270
275 275 275 276 276 277 278 279 279 280 282 283 283 283 283 283 283 283 282 281 280 279 278 278 277 276 275 274 274 273 273 273 273 272 272 272 271 271 270 270 270 270 269
274 274 275 275 276 277 277 277 278 279 281 282 282 282 282 282 281 280 279 279 279 278 277 275 275 274 274 273 273 273 273 273 272 272 272 271 270 270 270 270 269 269 269
273 274 274 275 275 276 277 277 277 278 279 280 281 281 281 280 278 278 278 278 277 276 275 274 274 273 273 273 272 272 272 272 272 272 271 271 270 270 269 269 268 268 268
Wind_Speed
8 7 7 7 9 11 12 14 16 18 21 23 25 28 29 29 29 30 31 31 34 37 40 42 43 41 42 43 43 41 41 40 47 51 47 46 47 45 42 37 36 37 37
10 9 10 10 11 12 13 15 18 19 21 23 25 26 28 29 29 30 32 32 33 35 37 39 41 41 43 41 40 41 41 40 42 48 44 46 45 42 40 37 36 36 36
10 11 12 13 15 16 18 19 20 21 22 24 25 27 28 29 30 30 32 34 35 36 36 37 38 37 39 37 36 39 41 40 41 44 46 47 45 41 39 37 36 33 33
11 12 14 15 16 17 18 19 21 24 26 27 28 30 30 31 31 32 34 35 37 38 39 39 38 36 36 34 37 38 38 39 40 41 42 43 42 40 38 36 34 32 28
14 15 17 18 20 22 24 26 29 30 30 34 35 33 33 33 32 33 33 34 36 38 39 39 38 35 33 34 35 36 37 39 39 40 40 42 42 40 40 36 29 24 22
18 20 22 24 26 27 28 29 30 32 33 34 35 37 37 35 35 35 35 36 35 35 36 37 36 33 33 34 35 35 36 37 38 39 40 42 41 36 30 27 25 21 19
20 22 24 26 28 30 31 33 34 36 37 38 39 40 41 40 38 36 35 36 37 36 34 32 31 31 31 33 34 35 36 37 38 37 34 34 30 21 17 16 19 17 19
23 25 27 30 31 32 33 34 35 36 38 40 42 42 43 41 40 39 36 34 33 34 34 34 33 32 30 32 34 33 34 33 31 29 25 21 17 14 10 9 13 13 9
27 28 29 30 32 33 35 37 38 40 42 43 44 45 44 42 39 39 37 36 34 32 30 30 31 31 29 30 32 31 29 25 20 17 14 11 7 7 8 9 12 14 13
28 29 29 31 34 36 37 39 40 41 44 45 45 44 44 44 40 39 36 36 35 31 28 28 28 30 29 28 26 21 18 13 8 7 12 18 17 16 14 11 11 9 7
27 28 29 30 33 34 37 39 41 43 44 44 44 44 42 41 40 36 34 33 32 32 29 27 25 24 20 13 9 8 6 10 13 17 16 18 19 18 16 13 10 7 6
30 31 32 33 34 36 38 40 41 43 45 46 45 45 42 39 37 34 31 25 24 23 22 20 14 7 5 4 4 9 12 14 16 20 21 19 15 11 9 7 6 4 3
34 36 38 39 39 39 40 41 44 44 44 46 45 44 42 36 30 26 22 17 17 17 12 5 7 8 7 12 14 15 16 18 18 17 13 10 7 6 5 4 2 2 3
39 40 40 40 39 38 39 40 40 42 43 43 42 39 35 29 22 16 13 12 10 3 6 10 14 14 18 17 18 19 19 14 12 9 6 4 3 3 3 1 2 3 4
40 40 41 42 42 42 41 41 40 40 39 39 36 31 26 20 12 8 8 5 3 9 11 16 16 16 16 17 19 19 16 11 5 2 1 1 1 1 2 3 4 5 5
39 40 40 42 43 43 43 43 39 37 35 32 25 24 19 13 8 7 4 5 10 11 14 16 16 15 15 14 13 11 7 4 3 2 2 2 3 3 4 4 4 4 5
39 40 41 42 43 43 43 41 41 35 32 28 19 19 13 9 11 8 9 10 11 14 13 13 14 12 11 9 7 5 4 3 4 4 4 4 3 2 2 4 5 5 6
40 41 42 42 42 43 41 39 35 31 30 25 16 16 12 13 13 13 14 11 13 12 12 11 11 10 9 7 6 5 4 3 3 3 3 3 3 4 5 5 5 6 7
42 41 40 41 41 41 40 37 33 28 25 21 20 15 14 15 16 19 16 11 9 10 11 10 10 9 7 6 4 3 3 3 4 4 5 5 5 6 6 6 6 6 7
43 41 39 39 38 39 37 34 30 27 24 24 23 19 18 19 22 20 19 14 12 11 10 9 8 6 6 5 4 4 4 5 5 5 6 6 6 5 5 5 5 5 6
41 40 37 37 36 35 34 31 28 25 25 26 28 24 21 24 24 22 18 15 13 12 11 9 7 6 5 5 4 5 6 6 6 6 6 6 5 5 5 5 6 6 7
36 36 35 34 32 31 30 27 26 25 24 26 28 28 27 25 23 20 16 15 15 13 10 8 7 6 7 6 8 9 7 7 6 6 6 6 5 5 5 6 6 6 6
33 33 32 31 29 28 27 25 24 24 24 25 29 28 25 26 23 19 16 16 13 10 9 8 7 8 8 9 10 7 7 7 6 6 5 5 5 5 5 5 6 6 6
28 28 28 27 26 25 23 21 20 22 24 26 28 25 23 23 21 18 17 14 11 10 9 8 10 9 9 9 8 7 6 6 5 5 5 5 4 5 5 6 7 7 8
24 24 23 22 21 19 17 16 18 21 23 25 26 24 23 21 18 16 14 12 10 9 9 10 10 10 9 9 8 7 6 5 5 5 5 5 5 6 8 9 9 9 10
21 20 19 17 15 13 12 13 15 17 20 24 22 21 19 17 15 13 11 10 10 10 11 12 11 10 9 9 7 6 6 6 6 6 6 7 8 9 10 11 12 12 13
Wind_Direction
30 21 7 349 336 327 322 317 312 310 307 306 305 302 301 300 298 294 292 288 283 281 279 279 278 278 277 276 279 278 276 277 277 285 286 288 286 289 288 286 284 283 280
28 17 5 357 347 337 331 327 323 321 319 315 311 309 308 307 305 302 298 295 290 286 283 277 277 277 275 276 275 277 276 278 277 281 287 285 285 287 287 286 282 279 274
10 358 348 340 336 334 332 329 326 324 322 321 319 317 314 311 308 305 303 301 298 294 291 287 284 277 277 276 273 273 276 277 278 279 284 283 284 285 285 284 282 278 272
360 351 346 343 341 337 334 330 328 326 325 321 321 318 314 310 306 302 299 297 295 294 293 291 288 283 277 277 272 274 274 275 275 276 279 280 281 281 279 277 274 273 270
354 349 345 340 335 331 327 324 322 318 316 316 313 310 310 309 307 302 298 296 294 293 290 289 288 288 282 278 275 275 274 274 273 273 274 276 274 274 276 280 275 267 257
343 340 336 332 329 326 323 321 320 317 315 315 314 313 312 310 308 305 303 301 298 294 292 289 289 287 280 277 274 273 273 273 274 274 274 273 276 277 281 276 260 240 233
337 334 331 328 327 325 323 321 319 319 320 320 319 319 316 315 312 310 309 307 304 300 295 293 287 283 282 280 278 276 272 270 270 269 267 269 274 278 273 263 252 241 236
331 329 327 324 322 320 318 318 319 318 319 319 318 318 316 316 313 310 308 305 303 301 298 294 288 286 282 282 282 279 274 269 265 261 264 264 263 257 247 234 228 212 219
322 322 321 318 316 317 316 316 317 315 315 315 317 316 315 314 311 308 307 305 304 302 299 293 288 286 285 283 281 279 276 271 260 253 249 251 238 189 161 159 162 162 162
315 315 315 314 312 313 313 314 314 312 311 312 312 313 313 312 312 309 307 303 301 299 294 289 285 283 281 276 275 272 267 258 241 186 144 125 117 112 113 114 133 150 161
313 314 314 314 312 311 309 309 311 310 309 309 309 309 310 310 307 305 303 302 301 299 295 290 286 282 280 269 250 245 218 174 150 134 128 125 120 116 119 128 139 157 181
313 313 313 312 309 308 307 307 308 309 308 308 308 308 309 308 306 303 298 293 291 293 290 285 281 262 215 200 174 144 144 146 140 133 126 121 119 125 135 148 156 170 218
309 310 310 309 308 306 305 305 305 306 308 307 308 309 310 308 305 299 296 294 295 295 289 261 169 148 137 123 121 131 136 140 136 131 126 120 120 127 138 150 175 238 251
306 307 308 308 308 308 306 305 305 304 306 305 306 308 307 306 302 297 290 294 296 270 142 138 140 131 124 118 121 130 140 130 134 130 118 105 119 139 160 197 261 267 273
309 309 308 307 306 306 304 304 305 304 307 304 304 304 303 301 291 264 281 277 179 140 139 142 140 134 132 128 124 128 135 142 149 161 140 130 155 198 261 267 268 265 263
310 310 309 308 306 304 302 301 302 304 304 302 295 295 295 273 229 231 248 169 153 154 157 153 144 141 144 142 142 144 151 172 205 224 249 265 268 263 255 240 247 280 290
309 308 306 305 304 302 300 300 301 302 301 300 289 282 267 225 194 203 172 158 163 168 172 166 164 162 162 166 175 187 197 216 249 251 247 237 233 243 276 304 295 284 279
303 302 301 301 300 299 298 297 296 295 293 293 289 278 236 197 197 181 179 171 150 153 171 168 168 165 167 175 187 198 205 211 230 251 267 284 295 299 299 296 294 297 294
301 299 298 297 296 295 294 293 290 286 276 269 272 261 214 199 197 193 197 191 175 174 182 180 179 178 178 178 180 196 220 240 255 268 281 293 300 304 306 304 301 298 296
300 298 295 293 292 290 289 288 283 277 264 247 246 247 227 211 207 204 197 192 190 196 188 182 180 183 192 201 212 229 243 253 268 277 286 289 292 302 305 305 301 297 293
300 298 295 292 289 288 285 281 277 270 257 248 241 239 223 215 215 210 199 193 200 198 194 191 198 211 230 241 254 266 266 269 273 279 283 286 293 295 295 300 298 293 285
300 298 296 293 290 287 283 277 269 263 254 248 238 232 226 219 218 207 200 201 196 195 201 211 226 242 251 263 270 263 266 273 276 278 281 284 289 291 291 285 280 277 280
304 301 297 294 292 288 281 271 259 257 255 245 233 229 225 213 206 197 198 197 197 202 217 230 244 257 265 269 263 258 262 270 274 273 273 274 272 276 278 278 281 283 289
306 302 299 295 291 287 279 267 257 259 255 239 222 217 206 195 196 196 198 199 203 217 230 246 255 260 264 259 254 257 260 259 260 264 267 271 277 283 285 285 288 293 296
316 309 303 299 294 289 279 271 262 256 248 223 212 205 198 196 193 198 200 208 221 235 247 255 261 260 253 250 251 248 246 256 264 273 274 281 290 292 290 289 289 291 291
329 322 315 309 304 298 290 276 260 246 219 206 202 197 195 190 194 205 216 230 243 252 258 260 255 246 244 245 244 246 256 265 272 281 283 290 294 291 288 286 286 285 284